• en France
  • Liste des pays
  • À 7 jours
  • Température de l'eau
  • Carte satellitaire
  • Carte météo
  • Widgets météo
  • user-avatar
    Se connecter

    Météo par heure à Carmarthen

    Ce jour, 20 Novembre, Lundi

    Heure Température Précipitation Vent Pression Humidité
    00:00 +9°C° 0,9 mm 8 m/s 756 mmHg 93%
    01:00 +9°C° 0,3 mm 8 m/s 755 mmHg 93%
    02:00 +10°C° 0,3 mm 8 m/s 754 mmHg 93%
    03:00 +10°C° 0,3 mm 8 m/s 754 mmHg 94%
    04:00 +10°C° 0,2 mm 8 m/s 753 mmHg 93%
    05:00 +11°C° 0,2 mm 7 m/s 753 mmHg 93%
    06:00 +11°C° 0,2 mm 7 m/s 753 mmHg 93%
    07:00 +11°C° 0,1 mm 7 m/s 753 mmHg 92%
    08:00 +11°C° 0,1 mm 7 m/s 753 mmHg 92%
    09:00 +11°C° 0,1 mm 7 m/s 752 mmHg 91%
    10:00 +11°C° 0,4 mm 8 m/s 753 mmHg 90%
    11:00 +11°C° 0,4 mm 8 m/s 753 mmHg 90%
    12:00 +11°C° 0,4 mm 8 m/s 753 mmHg 90%
    13:00 +11°C° 0,1 mm 7 m/s 753 mmHg 90%
    14:00 +11°C° 0,1 mm 7 m/s 753 mmHg 90%
    15:00 +11°C° 0,1 mm 6 m/s 753 mmHg 90%
    16:00 +10°C° 0 mm 6 m/s 753 mmHg 92%
    17:00 +10°C° 0 mm 5 m/s 753 mmHg 93%
    18:00 +10°C° 0 mm 5 m/s 753 mmHg 94%
    19:00 +10°C° 0,3 mm 4 m/s 753 mmHg 94%
    20:00 +10°C° 0,3 mm 4 m/s 753 mmHg 95%
    21:00 +10°C° 0,3 mm 4 m/s 753 mmHg 96%
    22:00 +10°C° 1,1 mm 3 m/s 753 mmHg 96%
    23:00 +10°C° 1,1 mm 3 m/s 753 mmHg 96%

    Demain, 21 Novembre, Mardi

    Heure Température Précipitation Vent Pression Humidité
    00:00 +11°C° 1,1 mm 3 m/s 753 mmHg 97%
    01:00 +11°C° 0,6 mm 3 m/s 753 mmHg 97%
    02:00 +11°C° 0,6 mm 4 m/s 752 mmHg 96%
    03:00 +12°C° 0,6 mm 5 m/s 752 mmHg 96%
    04:00 +12°C° 0,3 mm 5 m/s 751 mmHg 96%
    05:00 +12°C° 0,3 mm 5 m/s 751 mmHg 95%
    06:00 +13°C° 0,3 mm 6 m/s 750 mmHg 94%
    07:00 +13°C° 0,2 mm 6 m/s 750 mmHg 94%
    08:00 +11°C° 0,2 mm 6 m/s 749 mmHg 95%
    09:00 +11°C° 0,2 mm 6 m/s 749 mmHg 95%
    10:00 +11°C° 0,2 mm 7 m/s 748 mmHg 93%
    11:00 +11°C° 0,2 mm 7 m/s 747 mmHg 92%
    12:00 +10°C° 0,2 mm 8 m/s 747 mmHg 91%
    13:00 +11°C° 0,7 mm 9 m/s 746 mmHg 91%
    14:00 +12°C° 0,7 mm 9 m/s 745 mmHg 91%
    15:00 +12°C° 0,7 mm 9 m/s 744 mmHg 92%
    16:00 +12°C° 0,1 mm 9 m/s 743 mmHg 92%
    17:00 +12°C° 0,1 mm 8 m/s 743 mmHg 92%
    18:00 +12°C° 0,1 mm 7 m/s 742 mmHg 92%
    19:00 +12°C° 0,2 mm 7 m/s 742 mmHg 91%
    20:00 +12°C° 0,2 mm 7 m/s 742 mmHg 91%
    21:00 +11°C° 0,2 mm 7 m/s 742 mmHg 90%
    22:00 +10°C° 0 mm 7 m/s 741 mmHg 90%
    23:00 +10°C° 0 mm 7 m/s 741 mmHg 90%

    Après-demain, 22 Novembre, Mercredi

    Heure Température Précipitation Vent Pression Humidité
    00:00 +9°C° 0 mm 6 m/s 741 mmHg 90%
    01:00 +9°C° 0 mm 6 m/s 741 mmHg 91%
    02:00 +9°C° 0 mm 6 m/s 741 mmHg 91%
    03:00 +8°C° 0 mm 5 m/s 740 mmHg 92%
    04:00 +9°C° 0,3 mm 5 m/s 740 mmHg 93%
    05:00 +9°C° 0,3 mm 5 m/s 739 mmHg 93%
    06:00 +10°C° 0,3 mm 4 m/s 739 mmHg 94%
    07:00 +8°C° 1,6 mm 4 m/s 738 mmHg 94%
    08:00 +8°C° 1,6 mm 4 m/s 738 mmHg 95%
    09:00 +8°C° 1,6 mm 4 m/s 737 mmHg 95%
    10:00 +8°C° 1,5 mm 4 m/s 736 mmHg 95%
    11:00 +8°C° 1,5 mm 4 m/s 735 mmHg 95%
    12:00 +8°C° 1,5 mm 4 m/s 735 mmHg 95%
    13:00 +8°C° 0,9 mm 4 m/s 734 mmHg 95%
    14:00 +8°C° 0,9 mm 4 m/s 733 mmHg 95%
    15:00 +8°C° 0,9 mm 4 m/s 733 mmHg 95%
    16:00 +8°C° 0,8 mm 4 m/s 733 mmHg 95%
    17:00 +8°C° 0,8 mm 4 m/s 733 mmHg 95%
    18:00 +8°C° 0,8 mm 4 m/s 732 mmHg 95%
    19:00 +8°C° 0,8 mm 4 m/s 733 mmHg 95%
    20:00 +7°C° 0,8 mm 4 m/s 733 mmHg 95%
    21:00 +7°C° 0,8 mm 5 m/s 733 mmHg 95%
    22:00 +7°C° 0 mm 4 m/s 734 mmHg 94%
    23:00 +7°C° 0 mm 4 m/s 735 mmHg 93%

    23 Novembre, Jeudi

    Heure Température Précipitation Vent Pression Humidité
    00:00 +7°C° 0 mm 3 m/s 735 mmHg 93%
    01:00 +7°C° 0 mm 4 m/s 736 mmHg 93%
    02:00 +8°C° 0 mm 5 m/s 736 mmHg 93%
    03:00 +8°C° 0 mm 6 m/s 737 mmHg 93%
    04:00 +8°C° 0 mm 7 m/s 737 mmHg 91%
    05:00 +7°C° 0 mm 8 m/s 738 mmHg 88%
    06:00 +7°C° 0 mm 9 m/s 739 mmHg 85%
    07:00 +7°C° 0,3 mm 8 m/s 739 mmHg 86%
    08:00 +7°C° 0,3 mm 8 m/s 739 mmHg 87%
    09:00 +7°C° 0,3 mm 8 m/s 739 mmHg 88%
    10:00 +8°C° 0,2 mm 9 m/s 739 mmHg 85%
    11:00 +9°C° 0,2 mm 10 m/s 739 mmHg 83%
    12:00 +11°C° 0,2 mm 11 m/s 739 mmHg 80%
    13:00 +11°C° 0,1 mm 11 m/s 739 mmHg 80%
    14:00 +9°C° 0,1 mm 10 m/s 739 mmHg 79%
    15:00 +9°C° 0,1 mm 10 m/s 740 mmHg 79%
    16:00 +8°C° 0 mm 10 m/s 740 mmHg 80%
    17:00 +7°C° 0 mm 9 m/s 741 mmHg 80%
    18:00 +6°C° 0 mm 8 m/s 741 mmHg 81%
    19:00 +7°C° 0 mm 9 m/s 741 mmHg 81%
    20:00 +7°C° 0 mm 10 m/s 741 mmHg 80%
    21:00 +7°C° 0 mm 11 m/s 741 mmHg 79%
    22:00 +7°C° 0 mm 12 m/s 741 mmHg 77%
    23:00 +5°C° 0 mm 12 m/s 741 mmHg 75%

    24 Novembre, Vendredi

    Heure Température Précipitation Vent Pression Humidité
    00:00 +5°C° 0 mm 13 m/s 741 mmHg 72%
    01:00 +5°C° 0 mm 12 m/s 741 mmHg 72%
    02:00 +4°C° 0 mm 12 m/s 741 mmHg 71%
    03:00 +4°C° 0 mm 12 m/s 741 mmHg 70%
    04:00 +4°C° 0 mm 12 m/s 742 mmHg 71%
    05:00 +4°C° 0 mm 11 m/s 742 mmHg 72%
    06:00 +4°C° 0 mm 11 m/s 743 mmHg 73%
    07:00 +5°C° 0 mm 10 m/s 743 mmHg 74%
    08:00 +5°C° 0 mm 10 m/s 744 mmHg 76%
    09:00 +3°C° 0 mm 9 m/s 745 mmHg 77%
    10:00 +5°C° 0 mm 9 m/s 745 mmHg 76%
    11:00 +5°C° 0 mm 8 m/s 746 mmHg 74%
    12:00 +6°C° 0 mm 8 m/s 747 mmHg 72%
    13:00 +5°C° 0 mm 7 m/s 747 mmHg 72%
    14:00 +5°C° 0 mm 7 m/s 747 mmHg 73%
    15:00 +5°C° 0 mm 6 m/s 748 mmHg 73%
    16:00 +4°C° 0 mm 6 m/s 748 mmHg 74%
    17:00 +3°C° 0 mm 5 m/s 749 mmHg 76%
    18:00 +3°C° 0 mm 5 m/s 749 mmHg 77%
    19:00 +4°C° 0 mm 4 m/s 749 mmHg 76%
    20:00 +3°C° 0 mm 4 m/s 750 mmHg 75%
    21:00 +3°C° 0 mm 3 m/s 750 mmHg 75%
    22:00 +3°C° 0 mm 3 m/s 750 mmHg 74%
    23:00 +3°C° 0 mm 3 m/s 750 mmHg 74%

    25 Novembre, Samedi

    Heure Température Précipitation Vent Pression Humidité
    00:00 +3°C° 0 mm 4 m/s 750 mmHg 74%
    01:00 +3°C° 0 mm 4 m/s 750 mmHg 73%
    02:00 +3°C° 0 mm 4 m/s 750 mmHg 72%
    03:00 +3°C° 0 mm 4 m/s 750 mmHg 72%
    04:00 +2°C° 0 mm 5 m/s 749 mmHg 71%
    05:00 +2°C° 0 mm 6 m/s 749 mmHg 70%
    06:00 +2°C° 0 mm 7 m/s 749 mmHg 70%
    07:00 +2°C° 0 mm 7 m/s 749 mmHg 70%
    08:00 +2°C° 0 mm 7 m/s 750 mmHg 70%
    09:00 +2°C° 0 mm 7 m/s 750 mmHg 70%
    10:00 +3°C° 0 mm 6 m/s 751 mmHg 69%
    11:00 +3°C° 0 mm 5 m/s 751 mmHg 68%
    12:00 +5°C° 0 mm 4 m/s 752 mmHg 67%
    13:00 +4°C° 0 mm 3 m/s 752 mmHg 68%
    14:00 +5°C° 0 mm 2 m/s 752 mmHg 69%
    15:00 +6°C° 0 mm 1 m/s 753 mmHg 69%
    16:00 +4°C° 0 mm 2 m/s 753 mmHg 73%
    17:00 +3°C° 0 mm 2 m/s 754 mmHg 76%
    18:00 +2°C° 0 mm 3 m/s 754 mmHg 79%
    19:00 +1°C° 0 mm 4 m/s 754 mmHg 77%
    20:00 +2°C° 0 mm 5 m/s 754 mmHg 74%
    21:00 +2°C° 0 mm 6 m/s 754 mmHg 71%
    22:00 +3°C° 0,3 mm 7 m/s 753 mmHg 73%
    23:00 +2°C° 0,3 mm 8 m/s 753 mmHg 76%
    Voir plus